sat.trackr.live / text

‹ back to catalog

STARLINK-5893

NORAD 55952 · 2023-037AQ

PAYLOAD ACTIVE UNKNOWN

§ Identity

Operator
Country
US
Launch date
2023-03-17
Launch site
AFWTR
Launch vehicle
Mass (kg)
RCS (m²)

Purposes: comms

External: N2YO · Heavens-Above · Gunter

§ Orbital elements

Epoch: 2026-09-20T01:11:57.492672Z

Period
96.11 min
Inclination
69.9985°
Eccentricity
0.0002837
Mean motion
14.98330139 rev/d
Perigee alt
570.1 km
Apogee alt
574.0 km
Semi-major
6,950.2 km
B*
2.7442e-5
RAAN
134.5225°
Arg perigee
268.5385°
Mean anomaly
91.5449°
Rev number
19,358

§ Raw data

STARLINK-58931 55952U 23037AQ  26263.04997098  .00000234  00000+0  27442-4 0  99972 55952  69.9985 134.5225 0002837 268.5385  91.5449 14.98330139193582

JSON: /api/v1/satellites/55952 · /tle

For live sub-satellite position, see the globe view (requires WebGL).

§ Visibility from observer

Set your observer location to see the next 7 days of passes ≥ 10°. The values pass through the URL so the page stays shareable.

No JS? Fill the form by hand. The geolocation button needs JavaScript.